Weather History for San Antonio Stinson, TX

Change the Weather History Date:

Thursday, November 4, 2010

  Actual Average Record
Temperature  
Mean Temperature 60 °F -  
Max Temperature 73 °F 72 °F 84 °F (2008)
Min Temperature 46 °F 53 °F 36 °F (2011)
Degree Days  
Heating Degree Days 5    
Growing Degree Days 10 (Base 50)    
Moisture  
Dew Point 30 °F    
Average Humidity 32    
Maximum Humidity 63    
Minimum Humidity 13    
Precipitation  
Precipitation 0.00 in - - ()
Sea Level Pressure  
Sea Level Pressure 30.19 in    
Wind  
Wind Speed 11 mph (North)    
Max Wind Speed 17 mph    
Max Gust Speed 29 mph    
Visibility 10 miles    
Events      
Averages and records for this station are not official NWS values.
T = Trace of Precipitation, MM = Missing Value Source: NWS Daily Summary

Daily Weather History Graph

Daily Weather History Graph

Search for Another Location

Airport:

Trip Planner

Search our weather history database for the weather conditions in past years. The results will help you decide how hot, cold, wet, or windy it might be!

Date:

Astronomy

Nov. 04, 2010 Rise Set
Actual Time 7:49 AM CDT 6:45 PM CDT
Civil Twilight 7:24 AM CDT 7:10 PM CDT
Nautical Twilight 6:56 AM CDT 7:38 PM CDT
Astronomical Twilight 6:28 AM CDT 8:06 PM CDT
Moon 6:05 AM CDT (11/4) 5:30 PM CDT (11/4)
Length of Visible Light 11h 45m
Length of Day
10h 56m
Waning Crescent, 3% of the Moon is Illuminated
Nov 4
Waning Crescent
Nov 5
New
Nov 13
First Quarter
Nov 21
Full
Nov 28
Last Quarter

Hourly Weather History & Observations

Time (CDT) Temp. Dew Point Humidity Pressure Visibility Wind Dir Wind Speed Gust Speed Precip Events Conditions
12:53 AM 66.0 °F 34.0 °F 30% 30.10 in 10.0 mi North 13.8 mph - N/A   Partly Cloudy
1:53 AM 64.9 °F 35.1 °F 33% 30.10 in 10.0 mi North 12.7 mph 18.4 mph N/A   Clear
2:53 AM 64.9 °F 36.0 °F 34% 30.12 in 10.0 mi North 15.0 mph 25.3 mph N/A   Clear
3:53 AM 64.9 °F 36.0 °F 34% 30.13 in 10.0 mi North 12.7 mph 25.3 mph N/A   Clear
4:53 AM 63.0 °F 35.1 °F 35% 30.14 in 10.0 mi North 15.0 mph 26.5 mph N/A   Clear
5:53 AM 62.1 °F 35.1 °F 37% 30.17 in 10.0 mi North 15.0 mph 21.9 mph N/A   Clear
6:53 AM 60.1 °F 35.1 °F 39% 30.19 in 10.0 mi NNW 5.8 mph - N/A   Clear
7:53 AM 57.0 °F 36.0 °F 45% 30.22 in 10.0 mi North 5.8 mph - N/A   Clear
8:53 AM 61.0 °F 33.1 °F 35% 30.25 in 10.0 mi North 8.1 mph - N/A   Clear
9:53 AM 63.0 °F 34.0 °F 34% 30.26 in 10.0 mi NNW 8.1 mph - N/A   Clear
10:53 AM 66.9 °F 32.0 °F 27% 30.27 in 10.0 mi NNW 6.9 mph - N/A   Clear
11:53 AM 69.1 °F 28.9 °F 22% 30.26 in 10.0 mi North 12.7 mph 28.8 mph N/A   Clear
12:53 PM 69.1 °F 28.9 °F 22% 30.24 in 10.0 mi NNW 17.3 mph 25.3 mph N/A   Clear
1:53 PM 71.1 °F 25.0 °F 18% 30.21 in 10.0 mi North 13.8 mph 27.6 mph N/A   Clear
2:53 PM 72.0 °F 25.0 °F 17% 30.17 in 10.0 mi North 11.5 mph 25.3 mph N/A   Clear
3:53 PM 72.0 °F 23.0 °F 16% 30.14 in 10.0 mi NNW 10.4 mph 20.7 mph N/A   Clear
4:53 PM 72.0 °F 19.9 °F 14% 30.13 in 10.0 mi North 12.7 mph 23.0 mph N/A   Clear
5:53 PM 70.0 °F 16.0 °F 13% 30.14 in 10.0 mi NNW 12.7 mph 18.4 mph N/A   Clear
6:53 PM 64.9 °F 19.0 °F 17% 30.15 in 10.0 mi North 6.9 mph - N/A   Clear
7:53 PM 60.1 °F 21.9 °F 23% 30.17 in 10.0 mi NNW 3.5 mph - N/A   Clear
8:53 PM 54.0 °F 30.9 °F 41% 30.19 in 10.0 mi Calm Calm - N/A   Clear
9:53 PM 51.1 °F 32.0 °F 48% 30.22 in 10.0 mi NNW 3.5 mph - N/A   Clear
10:53 PM 48.0 °F 35.1 °F 61% 30.24 in 10.0 mi Calm Calm - N/A   Clear
11:53 PM 46.9 °F 35.1 °F 63% 30.25 in 10.0 mi Calm Calm - N/A   Clear